Ottawa International, Ontario

3:52 AM EST on February 09, 2016 (GMT -0500)
Ottawa-Macdonald-Cartier International

Weather History for CYOW - January, 2014

Change the Weather History Date:

Saturday, January 25, 2014

  Actual Average Record
Temperature  
Mean Temperature 12 °F -  
Max Temperature 23 °F 24 °F 39 °F (1997)
Min Temperature -2 °F 6 °F -18 °F (2004)
Degree Days  
Heating Degree Days 53    
Moisture  
Dew Point 10 °F    
Average Humidity 75    
Maximum Humidity 93    
Minimum Humidity 54    
Precipitation  
Precipitation 0.04 in 0.08 in - ()
Sea Level Pressure  
Sea Level Pressure 29.36 in    
Wind  
Wind Speed 16 mph ()    
Max Wind Speed 31 mph    
Max Gust Speed 39 mph    
Visibility 4.3 miles    
Events Snow    
Averages and records for this station are not official NWS values.
T = Trace of Precipitation, MM = Missing Value Source: Averaged Metar Reports

Daily Weather History Graph

Daily Weather History Graph

Search for Another Location

Airport or City:

Trip Planner

Search our weather history database for the weather conditions in past years. The results will help you decide how hot, cold, wet, or windy it might be!

Date:

Astronomy

Jan. 25, 2014 Rise Set
Actual Time 7:30 AM EST 4:59 PM EST
Civil Twilight 6:58 AM EST 5:31 PM EST
Nautical Twilight 6:22 AM EST 6:07 PM EST
Astronomical Twilight 5:47 AM EST 6:42 PM EST
Moon 1:58 AM EST (1/25) 11:59 AM EST (1/25)
Length of Visible Light 10h 33m
Length of Day
9h 29m
Waning Crescent, 34% of the Moon is Illuminated
Jan 25
Waning Crescent
Jan 30
New
Feb 6
First Quarter
Feb 14
Full
Feb 22
Last Quarter

Hourly Weather History & Observations

Time (EST) Temp. Windchill Dew Point Humidity Pressure Visibility Wind Dir Wind Speed Gust Speed Precip Events Conditions
12:00 AM 15.8 °F -0.2 °F 6.8 °F 68% 29.62 in 10.0 mi SSW 17.3 mph 26.5 mph N/A Snow Light Snow
1:00 AM 17 °F - 8 °F 54% 29.59 in 10 mi SSW 17.3 mph - - Snow Light Snow
1:00 AM 17.6 °F 2.7 °F 8.6 °F 68% 29.59 in 10.0 mi SSW 16.1 mph 25.3 mph N/A Snow Light Snow
1:53 AM 15.8 °F 0.9 °F 10.4 °F 79% 29.56 in 2.0 mi SSW 15.0 mph 23.0 mph N/A Snow Light Snow
2:00 AM 15.8 °F -0.2 °F 10.4 °F 79% 29.56 in 2.0 mi SSW 17.3 mph - N/A Snow Light Snow
2:23 AM 17.6 °F 4.3 °F 10.4 °F 73% 29.55 in 8.0 mi South 12.7 mph 20.7 mph N/A Snow Light Snow
3:00 AM 17.6 °F 3.2 °F 10.4 °F 73% 29.52 in 8.0 mi South 15.0 mph 24.2 mph N/A Snow Light Snow
3:27 AM 17.6 °F 2.2 °F 12.2 °F 79% 29.51 in 3.0 mi South 17.3 mph 24.2 mph N/A Snow Light Snow
4:00 AM 17.6 °F 5.7 °F 12.2 °F 79% 29.49 in 2.5 mi South 10.4 mph 19.6 mph N/A Snow Light Snow
5:00 AM 15.8 °F -0.6 °F 12.2 °F 86% 29.46 in 1.5 mi South 18.4 mph 24.2 mph N/A Snow Light Snow
6:00 AM 15.8 °F 0.3 °F 10.4 °F 79% 29.44 in 1.5 mi South 16.1 mph 25.3 mph N/A Snow Light Snow
7:00 AM 16 °F - 11 °F 73% 29.42 in 2 mi South 17.3 mph - - Snow Light Snow
7:00 AM 15.8 °F -0.2 °F 10.4 °F 79% 29.42 in 2.0 mi South 17.3 mph 24.2 mph N/A Snow Light Snow
8:00 AM 15.8 °F -0.6 °F 10.4 °F 79% 29.39 in 2.0 mi South 18.4 mph 27.6 mph N/A Snow Light Snow
8:45 AM 15.8 °F 0.3 °F 10.4 °F 79% 29.38 in 5.0 mi South 16.1 mph 23.0 mph N/A Snow Light Snow
9:00 AM 15.8 °F 1.4 °F 10.4 °F 79% 29.37 in 6.0 mi South 13.8 mph 25.3 mph N/A Snow Light Snow
9:16 AM 17.6 °F 2.7 °F 10.4 °F 73% 29.37 in 5.0 mi South 16.1 mph 26.5 mph N/A Snow Light Snow
9:44 AM 15.8 °F 0.3 °F 10.4 °F 79% 29.36 in 8.0 mi SSE 16.1 mph 23.0 mph N/A Snow Low Drifting Snow
10:00 AM 17.6 °F 2.2 °F 10.4 °F 73% 29.35 in 8.0 mi SSE 17.3 mph 26.5 mph N/A Snow Low Drifting Snow
10:19 AM 17.6 °F 2.7 °F 12.2 °F 79% 29.34 in 2.0 mi SSE 16.1 mph 25.3 mph N/A Snow Light Snow
11:00 AM 19.4 °F 3.2 °F 12.2 °F 74% 29.32 in 2.5 mi South 20.7 mph 29.9 mph N/A Snow Light Snow
11:11 AM 19.4 °F 3.2 °F 14.0 °F 80% 29.31 in 1.0 mi South 20.7 mph 29.9 mph N/A Snow Light Snow
11:36 AM 21.2 °F 5.6 °F 14.0 °F 74% 29.29 in 2.5 mi South 20.7 mph 29.9 mph N/A Snow Light Snow
11:53 AM 21.2 °F 6.4 °F 14.0 °F 74% 29.28 in 6.0 mi South 18.4 mph 28.8 mph N/A Snow Light Snow
12:00 PM 21.2 °F 6.8 °F 14.0 °F 74% 29.27 in 6.0 mi South 17.3 mph 28.8 mph N/A Snow Light Snow
1:00 PM 22 °F - 15 °F 63% 29.24 in 6 mi South 16.1 mph - - Snow Light Snow
1:00 PM 23.0 °F 9.2 °F 14.0 °F 68% 29.24 in 6.0 mi South 17.3 mph 24.2 mph N/A Snow Light Snow
2:00 PM 23.0 °F 8.3 °F 15.8 °F 74% 29.21 in 6.0 mi South 19.6 mph 25.3 mph N/A Snow Light Snow
3:00 PM 23.0 °F 8.0 °F 15.8 °F 74% 29.19 in 6.0 mi South 20.7 mph - N/A Snow Light Snow
3:40 PM 23.0 °F 10.1 °F 17.6 °F 80% 29.19 in 1.5 mi South 15.0 mph 24.2 mph N/A Snow Light Snow
4:00 PM 21.2 °F 6.8 °F 17.6 °F 86% 29.20 in 1.5 mi SSE 17.3 mph 25.3 mph N/A Snow Light Snow
5:00 PM 21.2 °F 6.8 °F 17.6 °F 86% 29.19 in 1.5 mi SSE 17.3 mph - N/A Snow Light Snow
6:00 PM 21.2 °F 8.9 °F 19.4 °F 93% 29.20 in 2.5 mi South 12.7 mph 23.0 mph N/A Snow Light Snow
6:12 PM 21.2 °F 8.9 °F 19.4 °F 93% 29.21 in 1.5 mi SSW 12.7 mph 20.7 mph N/A Snow Light Snow
7:00 PM 21 °F - 16 °F 73% 29.25 in 3 mi West 18.4 mph - - Snow Light Snow
7:00 PM 21.2 °F 6.4 °F 15.8 °F 80% 29.24 in 3.0 mi West 18.4 mph 28.8 mph N/A Snow Light Snow
7:33 PM 17.6 °F 0.1 °F 10.4 °F 73% 29.27 in 1.5 mi West 23.0 mph 31.1 mph N/A Snow Light Snow
8:00 PM 12.2 °F -8.9 °F 5.0 °F 73% 29.30 in 1.5 mi WNW 28.8 mph 35.7 mph N/A Snow Blowing Snow
8:46 PM 5.0 °F -18.7 °F -2.2 °F 72% 29.35 in 1.0 mi WNW 28.8 mph 38.0 mph N/A Snow Blowing Snow
9:00 PM 3.2 °F -21.8 °F -4.0 °F 72% 29.36 in 1.0 mi WNW 31.1 mph 39.1 mph N/A Snow Blowing Snow
9:17 PM 3.2 °F -19.0 °F -5.8 °F 66% 29.37 in 4.0 mi WNW 23.0 mph 32.2 mph N/A Snow Blowing Snow
10:00 PM 1.4 °F -21.0 °F -9.4 °F 61% 29.42 in 10.0 mi West 21.9 mph 32.2 mph N/A Snow Low Drifting Snow
11:00 PM -2.2 °F -26.2 °F -11.2 °F 66% 29.48 in 12.0 mi West 23.0 mph 29.9 mph N/A Snow Low Drifting Snow